Location: Maccacari
(45.1333°N, 11.1333°E)
Time: 12:38:42
(UTC+00:00)

Vanguard 3 - All Passes

Search period start: 25 January 2021 00:00
Search period end: 04 February 2021 00:00
Orbit: 508 x 3261 km, 33.3° (Epoch: 24 January)

Date Brightness Start Highest point End Pass type
(mag) Time Alt. Az. Time Alt. Az. Time Alt. Az.
25 Jan - 02:59:17 10° SW 03:05:02 32° SSE 03:14:21 10° ESE visible
25 Jan - 05:08:59 10° WSW 05:17:01 43° S 05:30:30 10° ESE visible
25 Jan - 07:20:23 10° WSW 07:30:21 34° SSW 07:45:03 10° SE daylight
25 Jan - 09:35:42 10° WSW 09:44:05 17° SW 09:53:58 10° S daylight
26 Jan - 01:47:17 10° SSW 01:51:28 21° SSE 01:57:22 10° ESE visible
26 Jan - 03:55:54 10° WSW 04:02:29 40° S 04:13:33 10° ESE visible
26 Jan - 06:06:25 10° WSW 06:15:06 38° S 06:28:57 10° SE visible
26 Jan - 08:19:14 10° WSW 08:28:37 24° SSW 08:41:03 10° SSE daylight
27 Jan - 02:43:13 10° SW 02:48:27 31° SSE 02:56:45 10° ESE visible
27 Jan - 04:52:57 10° WSW 05:00:14 39° S 05:12:23 10° ESE visible
27 Jan - 07:04:25 10° WSW 07:13:17 29° SSW 07:26:17 10° SSE daylight
27 Jan - 09:21:07 10° WSW 09:26:48 13° SW 09:33:14 10° SSW daylight
28 Jan - 01:31:08 10° SSW 01:34:55 20° SSE 01:40:09 10° ESE visible
28 Jan - 03:39:55 10° WSW 03:45:52 37° S 03:55:44 10° ESE visible
28 Jan - 05:50:27 10° WSW 05:58:13 33° SSW 06:10:31 10° SE visible
28 Jan - 08:03:42 10° WSW 08:11:30 19° SSW 08:21:35 10° S daylight
29 Jan - 02:27:13 10° SW 02:31:57 29° SSE 02:39:17 10° ESE visible
29 Jan - 04:37:02 10° WSW 04:43:34 35° S 04:54:17 10° SE visible
29 Jan - 06:48:39 10° WSW 06:56:21 24° SSW 07:07:22 10° SSE daylight
30 Jan - 01:15:01 10° SSW 01:18:28 20° SSE 01:23:04 10° ESE visible
30 Jan - 03:23:59 10° WSW 03:29:21 33° S 03:37:59 10° ESE visible
30 Jan - 05:34:37 10° WSW 05:41:29 28° SSW 05:52:02 10° SE visible
30 Jan - 07:48:46 10° WSW 07:54:30 15° SSW 08:01:31 10° S daylight
31 Jan - 02:11:16 10° SW 02:15:32 27° SSE 02:21:54 10° ESE visible
31 Jan - 04:21:11 10° WSW 04:27:00 30° S 04:36:12 10° SE visible
31 Jan - 06:33:10 10° WSW 06:39:32 19° SSW 06:48:13 10° SSE daylight
01 Feb - 00:58:57 10° SSW 01:02:04 19° SSE 01:06:06 10° ESE visible
01 Feb - 03:08:07 10° WSW 03:12:54 29° S 03:20:19 10° ESE visible
01 Feb - 05:18:58 10° WSW 05:24:51 23° SSW 05:33:28 10° SSE visible
01 Feb - 07:36:12 10° SW 07:37:37 10° SSW 07:39:08 10° SSW daylight
01 Feb - 23:48:15 10° SSE 23:48:46 10° SSE 23:49:19 10° SE night (unlit)
02 Feb - 01:55:20 10° SW 01:59:11 25° S 02:04:39 10° ESE visible
02 Feb - 04:05:27 10° WSW 04:10:31 25° S 04:18:09 10° SE visible
02 Feb - 06:18:12 10° SW 06:22:49 15° SSW 06:28:38 10° S daylight
03 Feb - 00:42:53 10° SSW 00:45:43 18° SSE 00:49:13 10° ESE night (unlit)
03 Feb - 02:52:20 10° SW 02:56:33 25° S 03:02:44 10° SE visible
03 Feb - 05:03:34 10° WSW 05:08:18 18° SSW 05:14:46 10° SSE visible
03 Feb - 23:31:27 10° S 23:32:23 11° SSE 23:33:21 10° SE night (unlit)
